Regional Weather Roundup
Issued by NWS Cleveland, OH

Home | Current Version | Previous Version | Graphics & Text | Print | Product List | Glossary On
Versions: 1 2 3 4 5 6 7 8 9 10 11 12 13 14 15 16 17 18 19 20 21 22 23 24 25 26 27 28 29 30 31 32 33 34 35 36 37 38 39 40 41 42 43 44 45 46 47 48 49 50
000
ASUS41 KCLE 240912
RWRCLE
OHIO REGIONAL WEATHER ROUNDUP
NATIONAL WEATHER SERVICE WILMINGTON, OH
500 AM EDT WED AUG 24 2016

NOTE: "FAIR" INDICATES FEW OR NO CLOUDS BELOW 12,000 FEET WITH NO
SIGNIFICANT WEATHER AND/OR OBSTRUCTIONS TO VISIBILITY.

OHZ001>008-015>018-024>027-034-035-043-044-241000-
   NORTHWEST OHIO

CITY           SKY/WX    TMP DP  RH WIND       PRES   REMARKS
DEFIANCE       FAIR      64  58  80 S5        30.17R
FINDLAY        FAIR      64  57  78 SE7       30.18R
TOLEDO EXPRESS FAIR      61  60  97 S3        30.17R
TOLEDO EXEC    FAIR      63  60  90 S3        30.18S
LIMA           FAIR      63  60  90 S7        30.18S
$$

OHZ009>014-019>023-028>033-038-089-241000-
   NORTHEAST OHIO

CITY           SKY/WX    TMP DP  RH WIND       PRES   REMARKS
CLE-HOPKINS    FAIR      64  56  75 S8        30.22F
CLE-LAKEFRONT  FAIR      67  58  72 SE12      30.19S
CUY CO. ARPT   NOT AVBL
LORAIN-ELYRIA  FAIR      61  56  83 S6        30.21F
ASHTABULA      FAIR      58  58 100 CALM      30.23F FOG
AKRON-CANTON   FAIR      62  56  80 CALM      30.23S
WOOSTER        FAIR      53  52  96 CALM      30.23S FOG
MANSFIELD      FAIR      61  58  90 S7        30.22F
YOUNGSTOWN     FAIR      57  55  93 SE5       30.24S
$$

OHZ042-051>053-060>062-070>072-077>081-241000-
  SOUTHWEST OHIO

CITY           SKY/WX    TMP DP  RH WIND       PRES   REMARKS
CINC-COVINGTON FAIR      68  62  81 S3        30.20R
CINC-LUNKEN    FAIR      64  64 100 CALM      30.20R
HAMILTON       FAIR      63  61  93 CALM      30.20R
DAYTON         MOCLDY    67  60  78 S5        30.20S
WRIGHT-PAT AFB FAIR      67  60  80 SE3       30.19R
DAYTON GENERAL FAIR      67  59  75 S5        30.19R
WILMINGTON     FAIR      65  61  87 CALM      30.20S
$$

OHZ036-037-039>041-045>050-054>059-063>069-073>076-082>088-241000-
  CENTRAL AND SOUTHEAST OHIO

CITY           SKY/WX    TMP DP  RH WIND       PRES   REMARKS
COLUMBUS       MOCLDY    62  59  90 CALM      30.20F
OSU AIRPORT    FAIR      63  61  93 CALM      30.21S
BOLTON FIELD   FAIR      62  61  96 CALM      30.21S
RICKENBACK AFB FAIR      60  59  96 CALM      30.20F
NEWARK         FOG       56  56 100 CALM      30.22S VSB 1
MARION         FAIR      61  57  87 S7        30.21S
LANCASTER      FAIR      58  57  97 CALM      30.21F
ZANESVILLE     FAIR      59  57  93 CALM      30.23S
NEW PHILLY     FAIR      59  55  87 CALM      30.23S
$$




USA.gov is the U.S. government's official web portal to all federal, state and local government web resources and services.